Starlink 35830

operational
NORAD ID: 66285 Int'l Des: 2025-247 Owner: SPXS Country: US Constellation: starlink
NOTLE

Starlink 35830について

説明を読み込み中...

リアルタイム位置

3D地球を読み込み中...

次回通過

高度履歴

Altitude vs Time

uPlot chart will show altitude changes over time

軌道要素

1 66285C 25247V 25305.06645833 .00474480 00000+0 71047-3 0 3056
2 66285 53.1563 79.7600 0008872 258.6110 320.5576 16.03453281 11
Epoch: Nov 1, 2025 • Age: 32 hours

現在のステータス

高度 274.4 km
速度 7.75 km/s
衛星直下点 -53.31°S, 174.66°W
打ち上げ日 Oct 31, 2025
運用期間 1 days
タイプ internet

技術仕様

分類 Payload
質量 575.00 kg
乾燥質量 530.00 kg
総質量 575.00 kg
長さ 0.30 m
直径 4.10 m
スパン 29.00 m
形状 Box + pan
製造者 SPXS
バスタイプ Starlink V2MO
フェーズステータス In Orbit
所有者/国 SPXS/US

大規模コンステレーション

Loading constellations...